Eau Claire, WI

10:14 AM CST on December 05, 2016 (GMT -0600)
Chippewa Valley Regional

Weather History for KEAU - May, 2015

Change the Weather History Date:

Tuesday, May 12, 2015

  Actual Average Record
Temperature  
Mean Temperature 47 °F 56 °F  
Max Temperature 56 °F 69 °F 92 °F (1900)
Min Temperature 37 °F 44 °F 26 °F (1967)
Degree Days  
Heating Degree Days 18 9  
Month to date heating degree days 87 128  
Since 1 July heating degree days 7951 7768  
Cooling Degree Days 0 1  
Month to date cooling degree days 9 6  
Year to date cooling degree days 9 10  
Moisture  
Dew Point 36 °F    
Average Humidity 72    
Maximum Humidity 100    
Minimum Humidity 43    
Precipitation  
Precipitation T in 0.11 in 1.86 in (1963)
Month to date precipitation 1.76 1.29  
Year to date precipitation 5.82 7.47  
Snow  
Snow 0.00 in 0.00 in 2.00 in (1946)
Month to date snowfall 0.0 0.2  
Since 1 July snowfall 38.1 47.0  
Snow Depth 0.00 in    
Sea Level Pressure  
Sea Level Pressure 30.05 in    
Wind  
Wind Speed 11 mph (NW)    
Max Wind Speed 23 mph    
Max Gust Speed 28 mph    
Visibility 9 miles    
Events Rain    
T = Trace of Precipitation, MM = Missing Value Source: NWS Daily Summary

Daily Weather History Graph

Daily Weather History Graph

Search for Another Location

Airport or City:

Trip Planner

Search our weather history database for the weather conditions in past years. The results will help you decide how hot, cold, wet, or windy it might be!

Date:

Astronomy

May. 12, 2015 Rise Set
Actual Time 5:41 AM CDT 8:24 PM CDT
Civil Twilight 5:07 AM CDT 8:58 PM CDT
Nautical Twilight 4:24 AM CDT 9:40 PM CDT
Astronomical Twilight 3:35 AM CDT 10:30 PM CDT
Moon 2:32 AM CDT (5/12) 2:02 PM CDT (5/12)
Length of Visible Light 15h 50m
Length of Day
14h 43m
Waning Crescent, 36% of the Moon is Illuminated
May 12
Waning Crescent
May 17
New
May 25
First Quarter
Jun 2
Full
Jun 9
Last Quarter

Hourly Weather History & Observations

Time (CDT) Temp. Windchill Dew Point Humidity Pressure Visibility Wind Dir Wind Speed Gust Speed Precip Events Conditions
12:10 AM 46.0 °F 41.4 °F 41.0 °F 83% 29.72 in 10.0 mi WSW 9.2 mph - N/A   Overcast
12:56 AM 45.0 °F 38.9 °F 42.1 °F 90% 29.73 in 6.0 mi SW 12.7 mph - N/A   Overcast
1:56 AM 44.1 °F 40.1 °F 43.0 °F 96% 29.74 in 4.0 mi WSW 6.9 mph - N/A   Overcast
2:56 AM 45.0 °F 40.6 °F 44.1 °F 97% 29.75 in 5.0 mi WSW 8.1 mph - N/A   Overcast
3:22 AM 45.0 °F 38.2 °F 43.0 °F 93% 29.75 in 6.0 mi West 15.0 mph 20.7 mph 0.00 in   Overcast
3:56 AM 42.1 °F 32.6 °F 39.0 °F 89% 29.80 in 10.0 mi WNW 23.0 mph 27.6 mph 0.00 in   Overcast
4:56 AM 39.9 °F 33.9 °F 37.0 °F 89% 29.86 in 10.0 mi WNW 9.2 mph - N/A   Overcast
5:56 AM 39.9 °F 32.9 °F 37.0 °F 89% 29.91 in 10.0 mi WNW 11.5 mph - N/A   Overcast
6:56 AM 39.9 °F 32.1 °F 35.1 °F 83% 29.95 in 10.0 mi NW 13.8 mph - N/A   Overcast
7:12 AM 41.0 °F 33.9 °F 35.1 °F 79% 29.95 in 10.0 mi WNW 12.7 mph 21.9 mph N/A   Overcast
7:49 AM 41.0 °F 34.3 °F 36.0 °F 82% 29.96 in 10.0 mi WNW 11.5 mph 19.6 mph N/A   Overcast
7:56 AM 41.0 °F 34.7 °F 36.0 °F 82% 29.99 in 10.0 mi WNW 10.4 mph 19.6 mph N/A   Overcast
8:04 AM 42.1 °F 36.1 °F 36.0 °F 79% 29.97 in 10.0 mi NW 10.4 mph - N/A   Overcast
8:56 AM 41.0 °F 33.9 °F 35.1 °F 79% 30.03 in 9.0 mi NW 12.7 mph 20.7 mph 0.00 in Rain Light Rain
9:56 AM 41.0 °F 33.1 °F 34.0 °F 76% 30.06 in 10.0 mi NW 15.0 mph - 0.00 in Rain Light Rain
10:09 AM 43.0 °F 35.4 °F 34.0 °F 71% 30.04 in 10.0 mi NNW 16.1 mph 26.5 mph 0.00 in   Mostly Cloudy
10:40 AM 44.1 °F 37.4 °F 33.1 °F 65% 30.05 in 10.0 mi NW 13.8 mph 24.2 mph 0.00 in   Mostly Cloudy
10:56 AM 44.1 °F 35.9 °F 33.1 °F 65% 30.08 in 10.0 mi NW 19.6 mph 25.3 mph 0.00 in   Overcast
11:08 AM 45.0 °F 38.2 °F 33.1 °F 63% 30.07 in 10.0 mi NNW 15.0 mph 25.3 mph N/A   Overcast
11:56 AM 48.0 °F - 33.1 °F 56% 30.12 in 10.0 mi NW 12.7 mph 24.2 mph N/A   Mostly Cloudy
12:56 PM 46.0 °F 40.2 °F 33.1 °F 61% 30.16 in 10.0 mi WNW 12.7 mph - 0.00 in   Overcast
1:56 PM 48.0 °F - 33.1 °F 56% 30.19 in 10.0 mi NW 12.7 mph - N/A   Overcast
2:56 PM 51.1 °F - 32.0 °F 48% 30.20 in 10.0 mi NW 16.1 mph 25.3 mph N/A   Overcast
3:56 PM 52.0 °F - 32.0 °F 47% 30.21 in 10.0 mi WNW 11.5 mph - N/A   Overcast
4:56 PM 52.0 °F - 33.1 °F 49% 30.22 in 10.0 mi NW 11.5 mph 24.2 mph N/A   Overcast
5:56 PM 55.0 °F - 33.1 °F 43% 30.23 in 10.0 mi NW 11.5 mph - N/A   Overcast
6:56 PM 52.0 °F - 33.1 °F 49% 30.25 in 10.0 mi North 8.1 mph - N/A   Scattered Clouds
7:56 PM 50.0 °F - 34.0 °F 54% 30.27 in 10.0 mi North 6.9 mph - N/A   Clear
8:56 PM 46.0 °F 43.1 °F 35.1 °F 66% 30.30 in 10.0 mi North 5.8 mph - N/A   Clear
9:56 PM 44.1 °F 42.5 °F 35.1 °F 71% 30.33 in 10.0 mi North 3.5 mph - N/A   Clear
10:56 PM 39.9 °F 36.7 °F 35.1 °F 83% 30.35 in 10.0 mi ENE 4.6 mph - N/A   Clear
11:56 PM 39.0 °F 34.8 °F 34.0 °F 82% 30.36 in 10.0 mi ENE 5.8 mph - N/A   Clear